Location: Taylor Dark Sky Site
(39.1017°N, 87.9564°W)
Time: 19:13:59
(UTC-05:00)

Amateur Radio Satellites - All Passes

Search period start: 17 April 2014 18:43
Search period end: 18 April 2014 18:43
Location: Taylor Dark Sky Site, 39.1017°N, 87.9564°W

Satellite Date Start Highest point End Downlink Frequencies (MHz)
Time Altitude Azimuth
Hamsat 17 Apr 19:03:37 19:07:18 30° 264° (W) 19:11:02 145.90 MHz
UOSAT-12 17 Apr 19:10:55 19:15:04 34° 309° (NW) 19:19:18 437.025 FM, 437.400 FM
JAS-2 17 Apr 19:29:59 19:36:01 67° 258° (WSW) 19:41:27 435.800 - 435.900 CW/SSB, 435.910 FM
Saudisat 1A 17 Apr 19:35:25 19:38:42 20° 46° (NE) 19:41:58 436.775 MHz
STRAND 1 17 Apr 19:49:47 19:54:53 77° 285° (WNW) 19:59:58 ?
SO-67 17 Apr 20:15:29 20:18:00 19° 266° (W) 20:20:32 435.3500 MHz FM
Oscar 11 17 Apr 20:35:08 20:36:31 11° 63° (ENE) 20:37:55 145.825 FM, Beacon 2401.500 USB
HO-68 17 Apr 20:39:27 20:46:19 54° 68° (ENE) 20:53:13 435.675 MHz FM
MaSat-1 17 Apr 21:06:37 21:06:40 10° 108° (ESE) 21:06:43 437.345 MHz
Saudisat 1A 17 Apr 21:14:19 21:18:32 46° 244° (WSW) 21:22:42 436.775 MHz
ISS 17 Apr 21:16:46 21:19:06 17° 21° (NNE) 21:21:25 145.800 FM
FUNcube-1 17 Apr 21:53:14 21:56:42 25° 70° (ENE) 22:00:07 145.950 - 145.970 MHz USB
Oscar 11 17 Apr 22:07:54 22:12:09 64° 259° (W) 22:16:27 145.825 FM, Beacon 2401.500 USB
HO-68 17 Apr 22:28:24 22:34:17 28° 265° (W) 22:40:13 435.675 MHz FM
MaSat-1 17 Apr 22:42:26 22:44:56 24° 298° (WNW) 22:47:12 437.345 MHz
ISS 17 Apr 22:52:52 22:56:15 90° 286° (WNW) 22:59:36 145.800 FM
FUNcube-1 17 Apr 23:29:34 23:33:03 25° 264° (W) 23:36:30 145.950 - 145.970 MHz USB
SO-50 17 Apr 23:29:36 23:31:40 13° 40° (NE) 23:33:45 436.795 FM
Sapphire 18 Apr 00:22:29 00:27:07 30° 109° (ESE) 00:31:46 437.095 MHz 1200 baud AX-25 AFSK
PCSat 18 Apr 01:06:36 01:12:00 80° 116° (ESE) 01:17:26 145.825 MHz
SO-50 18 Apr 01:08:16 01:12:56 84° 59° (ENE) 01:17:40 436.795 FM
OPAL 18 Apr 01:14:40 01:17:05 14° 58° (ENE) 01:19:32 ?
UOSAT-12 18 Apr 02:01:44 02:05:17 21° 45° (NE) 02:08:48 437.025 FM, 437.400 FM
Sapphire 18 Apr 02:05:25 02:10:24 37° 306° (NW) 02:15:25 437.095 MHz 1200 baud AX-25 AFSK
AO-27 18 Apr 02:08:54 02:13:02 24° 95° (E) 02:17:09 436.795 MHz FM
Oscar 10/S400 18 Apr 02:09:45 02:26:46 28° 133° (SE) 03:07:31 145.825 - 145.975 CW/USB, Beacon 145.810 USB
ITAMSAT 1 18 Apr 02:19:47 02:24:18 30° 96° (E) 02:28:47 435.822 SSB
Oscar 19 18 Apr 02:28:03 02:33:15 71° 102° (ESE) 02:38:26 437.125 CW, 437.150 USB
Oscar 16 18 Apr 02:36:01 02:41:14 90° 96° (E) 02:46:27 437.025 USB, Beacon 2401.1428
AO-Echo 18 Apr 02:44:00 02:48:29 39° 98° (E) 02:52:53 ?
KITSAT 1 18 Apr 02:45:01 02:52:40 48° 111° (ESE) 03:00:21 435.175 FM
OPAL 18 Apr 02:50:19 02:55:18 75° 255° (WSW) 03:00:24 ?
PCSat 18 Apr 02:52:38 02:56:04 17° 315° (NW) 02:59:31 145.825 MHz
Uribyol 2 18 Apr 03:08:10 03:13:22 87° 284° (WNW) 03:18:33 436.500 FM
JAS-1B 18 Apr 03:20:36 03:21:35 10° 90° (E) 03:22:33 435.800 - 435.900 CW/SSB
Gurwin Techsat 1B 18 Apr 03:30:38 03:35:42 45° 99° (E) 03:40:45 435.225 FM
UOSAT-12 18 Apr 03:41:09 03:45:44 52° 243° (WSW) 03:50:17 437.025 FM, 437.400 FM
AO-27 18 Apr 03:47:52 03:52:39 39° 290° (WNW) 03:57:24 436.795 MHz FM
ITAMSAT 1 18 Apr 03:59:13 04:03:44 31° 292° (WNW) 04:08:14 435.822 SSB
AO-7 18 Apr 04:01:44 04:07:23 20° 92° (E) 04:12:59 29.400 - 29.500 MHz
Oscar 19 18 Apr 04:09:15 04:11:58 15° 299° (WNW) 04:14:42 437.125 CW, 437.150 USB
Oscar 16 18 Apr 04:18:15 04:19:48 11° 301° (WNW) 04:21:21 437.025 USB, Beacon 2401.1428
TMSAT-1 18 Apr 04:19:45 04:25:04 88° 284° (WNW) 04:30:22 436.925 FM
AO-Echo 18 Apr 04:23:29 04:26:59 21° 295° (WNW) 04:30:26 ?
Uosat F 18 Apr 04:39:17 04:44:10 51° 100° (E) 04:49:00 435.120 FM
KITSAT 1 18 Apr 04:40:39 04:48:10 40° 310° (NW) 04:55:45 435.175 FM
Uribyol 2 18 Apr 04:50:49 04:52:02 11° 301° (WNW) 04:53:15 436.500 FM
JAS-1B 18 Apr 05:07:17 05:12:58 81° 285° (WNW) 05:18:51 435.800 - 435.900 CW/SSB
Gurwin Techsat 1B 18 Apr 05:11:19 05:15:21 23° 295° (WNW) 05:19:23 435.225 FM
STRAND 1 18 Apr 05:27:56 05:31:03 17° 63° (ENE) 05:34:11 ?
RS-15 18 Apr 05:44:43 05:53:26 27° 103° (ESE) 06:01:53 29.354 - 29.394 USB, Beacon 29.352 USB
AO-7 18 Apr 05:52:37 06:00:57 82° 289° (WNW) 06:09:17 29.400 - 29.500 MHz
TMSAT-1 18 Apr 06:02:38 06:04:11 11° 301° (WNW) 06:05:43 436.925 FM
Uosat F 18 Apr 06:19:11 06:22:32 18° 296° (WNW) 06:25:53 435.120 FM
JAS-2 18 Apr 06:41:16 06:43:59 14° 92° (E) 06:46:49 435.800 - 435.900 CW/SSB, 435.910 FM
KITSAT 1 18 Apr 06:43:09 06:46:15 12° 336° (NNW) 06:49:20 435.175 FM
Hamsat 18 Apr 06:49:58 06:54:12 50° 99° (E) 06:58:26 145.90 MHz
STRAND 1 18 Apr 07:04:42 07:09:44 60° 259° (WSW) 07:14:48 ?
MaSat-1 18 Apr 07:06:06 07:08:44 28° 63° (ENE) 07:11:45 437.345 MHz
SO-67 18 Apr 07:40:18 07:43:27 30° 97° (E) 07:46:34 435.3500 MHz FM
AO-7 18 Apr 07:47:22 07:52:30 18° 309° (NW) 07:57:39 29.400 - 29.500 MHz
RS-15 18 Apr 07:53:15 08:04:38 78° 303° (WNW) 08:15:40 29.354 - 29.394 USB, Beacon 29.352 USB
AO-40 18 Apr 07:53:49 09:25:56 25° 222° (SW) 12:46:06 Beacon 2401.320
JAS-2 18 Apr 08:24:08 08:29:27 70° 286° (WNW) 08:35:18 435.800 - 435.900 CW/SSB, 435.910 FM
Hamsat 18 Apr 08:27:25 08:29:46 15° 295° (WNW) 08:32:07 145.90 MHz
MaSat-1 18 Apr 08:45:41 08:47:02 12° 251° (WSW) 08:48:29 437.345 MHz
Sapphire 18 Apr 09:11:27 09:15:34 22° 48° (NE) 09:19:41 437.095 MHz 1200 baud AX-25 AFSK
SO-67 18 Apr 09:14:26 09:16:20 14° 292° (WNW) 09:18:12 435.3500 MHz FM
PANSAT 18 Apr 09:40:41 09:42:34 13° 169° (SSE) 09:44:27 not established
HO-68 18 Apr 09:55:35 10:02:42 62° 103° (ESE) 10:09:46 435.675 MHz FM
PCSat 18 Apr 09:55:48 10:01:04 49° 57° (ENE) 10:06:18 145.825 MHz
Oscar 11 18 Apr 09:57:13 10:00:49 25° 95° (E) 10:04:23 145.825 FM, Beacon 2401.500 USB
RS-15 18 Apr 10:10:09 10:19:02 26° 329° (NNW) 10:27:49 29.354 - 29.394 USB, Beacon 29.352 USB
KITSAT 1 18 Apr 10:39:41 10:45:46 22° 39° (NE) 10:51:48 435.175 FM
Sapphire 18 Apr 10:54:04 10:59:23 58° 246° (WSW) 11:04:39 437.095 MHz 1200 baud AX-25 AFSK
FUNcube-1 18 Apr 11:18:50 11:23:04 64° 101° (E) 11:27:22 145.950 - 145.970 MHz USB
Saudisat 1A 18 Apr 11:19:27 11:23:50 59° 118° (ESE) 11:28:15 436.775 MHz
PANSAT 18 Apr 11:19:36 11:22:08 17° 181° (S) 11:24:40 not established
Oscar 11 18 Apr 11:33:16 11:36:57 27° 291° (WNW) 11:40:37 145.825 FM, Beacon 2401.500 USB
PCSat 18 Apr 11:40:04 11:44:06 22° 254° (WSW) 11:48:07 145.825 MHz
HO-68 18 Apr 11:44:13 11:49:52 26° 300° (WNW) 11:55:31 435.675 MHz FM
Oscar 19 18 Apr 12:09:04 12:10:25 11° 59° (ENE) 12:11:45 437.125 CW, 437.150 USB
Oscar 16 18 Apr 12:15:41 12:18:19 14° 61° (ENE) 12:20:57 437.025 USB, Beacon 2401.1428
RS-15 18 Apr 12:30:23 12:36:56 17° 6° (N) 12:43:29 29.354 - 29.394 USB, Beacon 29.352 USB
KITSAT 1 18 Apr 12:34:14 12:42:24 85° 61° (ENE) 12:50:28 435.175 FM
Uribyol 2 18 Apr 12:48:22 12:51:17 15° 62° (ENE) 12:54:12 436.500 FM
FUNcube-1 18 Apr 12:57:45 12:58:58 11° 296° (WNW) 13:00:11 145.950 - 145.970 MHz USB
PANSAT 18 Apr 13:00:19 13:01:40 12° 194° (SSW) 13:03:00 not established
Saudisat 1A 18 Apr 13:00:50 13:03:49 17° 316° (NW) 13:06:48 436.775 MHz
AO-27 18 Apr 13:25:55 13:30:31 33° 68° (ENE) 13:35:08 436.795 MHz FM
ITAMSAT 1 18 Apr 13:36:41 13:41:30 41° 70° (ENE) 13:46:20 435.822 SSB
Oscar 19 18 Apr 13:43:49 13:48:57 89° 75° (ENE) 13:54:08 437.125 CW, 437.150 USB
Oscar 16 18 Apr 13:51:56 13:57:02 71° 258° (WSW) 14:02:12 437.025 USB, Beacon 2401.1428
AO-Echo 18 Apr 13:55:18 14:00:20 49° 72° (ENE) 14:05:18 ?
TMSAT-1 18 Apr 14:02:15 14:05:23 16° 62° (ENE) 14:08:32 436.925 FM
JAS-1B 18 Apr 14:04:06 14:07:46 14° 59° (ENE) 14:11:11 435.800 - 435.900 CW/SSB
Uribyol 2 18 Apr 14:25:04 14:30:11 66° 258° (WSW) 14:35:20 436.500 FM
KITSAT 1 18 Apr 14:31:36 14:36:45 19° 258° (WSW) 14:41:53 435.175 FM
RS-15 18 Apr 14:44:16 14:54:02 35° 40° (NE) 15:03:55 29.354 - 29.394 USB, Beacon 29.352 USB
Gurwin Techsat 1B 18 Apr 14:50:34 14:55:47 63° 73° (ENE) 15:01:02 435.225 FM
AO-7 18 Apr 14:59:43 15:06:16 27° 57° (ENE) 15:12:50 29.400 - 29.500 MHz
OPAL 18 Apr 15:01:36 15:06:15 32° 99° (E) 15:10:52 ?
AO-27 18 Apr 15:05:35 15:10:01 28° 264° (W) 15:14:28 436.795 MHz FM
ITAMSAT 1 18 Apr 15:17:06 15:21:07 23° 266° (W) 15:25:10 435.822 SSB
SO-50 18 Apr 15:22:42 15:26:45 35° 114° (ESE) 15:30:50 436.795 FM
ISS 18 Apr 15:34:36 15:37:52 55° 138° (SE) 15:41:10 145.800 FM
AO-Echo 18 Apr 15:35:36 15:39:18 19° 267° (W) 15:42:59 ?
TMSAT-1 18 Apr 15:39:30 15:44:44 65° 259° (WSW) 15:50:01 436.925 FM
JAS-1B 18 Apr 15:49:15 15:57:37 79° 74° (ENE) 16:04:34 435.800 - 435.900 CW/SSB
Uosat F 18 Apr 15:51:23 15:56:20 63° 73° (ENE) 16:01:19 435.120 FM
Gurwin Techsat 1B 18 Apr 16:33:12 16:36:10 15° 269° (W) 16:39:09 435.225 FM
OPAL 18 Apr 16:40:30 16:45:02 31° 294° (WNW) 16:49:33 ?
AO-7 18 Apr 16:50:09 16:58:22 69° 255° (WSW) 17:06:39 29.400 - 29.500 MHz
RS-15 18 Apr 16:56:27 17:07:21 74° 244° (WSW) 17:18:34 29.354 - 29.394 USB, Beacon 29.352 USB
SO-50 18 Apr 17:03:37 17:07:21 26° 312° (NW) 17:11:09 436.795 FM
ISS 18 Apr 17:12:10 17:14:50 21° 335° (NNW) 17:17:30 145.800 FM
Uosat F 18 Apr 17:33:01 17:35:32 14° 269° (W) 17:38:02 435.120 FM
Hamsat 18 Apr 17:42:44 17:46:24 30° 71° (ENE) 17:50:07 145.90 MHz
JAS-1B 18 Apr 17:43:11 17:48:31 19° 266° (W) 17:53:22 435.800 - 435.900 CW/SSB
UOSAT-12 18 Apr 17:51:02 17:55:30 61° 118° (ESE) 18:00:05 437.025 FM, 437.400 FM
